Date String (YYYY-MM-DD hh:mm:ss) UTC,Instrument flags,absolute air pressure of the measurement (hPa),sample flow rate (lpm),inlet stack bypass flow (lpm),air temperature of the measurement (°C),ambient temperature measured by the external sensor (°C),aerosol sample conditioner tube jacket temperature (°C),OPC LED temperature (°C),internal box temperature (°C),relative humidity of the measurement (%),span deviation,mass concentration of particles derived from Lorenz-Mie calculation of OPC scattering (μg/m³),mass concentration of particles derived from Lorenz-Mie calculation of OPC scattering (μg/m³),mass concentration of particles derived from Lorenz-Mie calculation of OPC scattering (μg/m³)
DateTimeUTC,F1_M11,P_M11,Q1_M11,Q2_M11,T1_M11,T2_M11,T3_M11,T4_M11,T5_M11,U1_M11,ZSPAN_M11,X0_M11,X2_M11,X1_M11
2023-08-06 07:00:00,SystemResetWarning,0838.8,5.01,000.00,029.3,026.0,000.0,037.9,030.7,31.6,0000.0,0004.12,0003.13,0002.71
2023-08-06 07:01:00,SystemResetWarning,0838.8,5.00,000.00,029.3,026.4,000.0,037.9,030.8,31.8,0000.0,0004.48,0003.17,0002.73
2023-08-06 07:02:00,SystemResetWarning,0838.8,5.00,000.00,029.3,026.7,000.0,038.0,030.8,31.8,0000.0,0004.76,0003.18,0002.76
2023-08-06 07:03:00,SystemResetWarning,0838.8,5.00,000.00,029.3,027.1,000.0,038.0,030.9,31.7,0000.0,0004.72,0003.18,0002.77
2023-08-06 07:04:00,SystemResetWarning,0838.7,5.00,000.00,029.3,027.3,000.0,038.0,030.9,31.7,0000.0,0004.65,0003.18,0002.80
2023-08-06 07:05:00,SystemResetWarning,0838.7,5.00,000.00,029.4,027.6,000.0,038.0,031.0,31.8,0000.0,0004.70,0003.19,0002.82
2023-08-06 07:06:00,SystemResetWarning,0838.7,5.01,000.00,029.4,027.7,000.0,038.0,031.0,31.8,0000.0,0004.63,0003.19,0002.82
2023-08-06 07:07:00,SystemResetWarning,0838.7,5.00,000.00,029.4,027.9,000.0,038.0,031.1,31.8,0000.0,0004.56,0003.18,0002.83
2023-08-06 07:08:00,SystemResetWarning,0838.7,5.00,000.00,029.4,028.0,000.0,038.0,031.1,31.7,0000.0,0004.59,0003.19,0002.83
2023-08-06 07:09:00,SystemResetWarning,0838.7,5.00,000.00,029.5,028.1,000.0,038.0,031.1,31.7,0000.0,0004.82,0003.19,0002.82
2023-08-06 07:10:00,SystemResetWarning,0838.6,5.00,000.00,029.5,028.2,000.0,038.0,031.2,31.5,0000.0,0004.88,0003.18,0002.81
2023-08-06 07:11:00,SystemResetWarning,0838.6,5.00,000.00,029.5,028.3,000.0,038.1,031.2,31.7,0000.0,0004.71,0003.16,0002.81
2023-08-06 07:12:00,SystemResetWarning,0838.6,5.00,000.00,029.5,028.4,000.0,038.1,031.2,31.8,0000.0,0004.40,0003.14,0002.81
2023-08-06 07:13:00,SystemResetWarning,0838.6,5.00,000.00,029.6,028.4,000.0,038.1,031.3,31.7,0000.0,0004.26,0003.15,0002.82
2023-08-06 07:14:00,SystemResetWarning,0838.5,5.00,000.00,029.6,028.5,000.0,038.1,031.3,31.6,0000.0,0004.28,0003.16,0002.82
2023-08-06 07:15:00,SystemResetWarning,0838.4,4.99,000.00,029.6,028.5,000.0,038.1,031.3,31.5,0000.0,0004.43,0003.18,0002.82
2023-08-06 07:16:00,SystemResetWarning,0838.4,5.00,000.00,029.7,028.6,000.0,038.2,031.3,31.5,0000.0,0004.77,0003.21,0002.83
2023-08-06 07:17:00,SystemResetWarning,0838.4,5.00,000.00,029.7,028.6,000.0,038.2,031.4,31.2,0000.0,0005.54,0003.23,0002.83
2023-08-06 07:18:00,SystemResetWarning,0838.4,4.99,000.00,029.7,028.5,000.0,038.2,031.4,31.0,0000.0,0005.80,0003.26,0002.84
2023-08-06 07:19:00,SystemResetWarning,0838.4,4.99,000.00,029.7,026.9,000.0,038.1,031.2,31.1,0000.0,0006.12,0003.28,0002.85
2023-08-06 07:20:00,SystemResetWarning,0838.4,5.00,000.00,029.6,025.6,000.0,038.0,031.0,31.2,0000.0,0006.58,0003.29,0002.87
2023-08-06 07:21:00,SystemResetWarning,0838.3,5.00,000.00,029.5,025.4,000.0,037.9,030.7,31.7,0000.0,0006.81,0003.30,0002.88
2023-08-06 07:22:00,SystemResetWarning,0838.3,5.01,000.00,029.4,025.7,000.0,037.9,030.6,32.1,0000.0,0007.35,0003.31,0002.89
2023-08-06 07:23:00,SystemResetWarning,0838.3,5.01,000.00,029.3,026.0,000.0,038.0,030.7,32.1,0000.0,0007.36,0003.31,0002.89
2023-08-06 07:24:00,SystemResetWarning,0838.3,4.99,000.00,029.3,026.5,000.0,038.0,030.8,32.1,0000.0,0007.37,0003.30,0002.89
2023-08-06 07:25:00,SystemResetWarning,0838.3,4.99,000.00,029.3,026.8,000.0,038.0,030.9,32.1,0000.0,0007.55,0003.30,0002.90
2023-08-06 07:26:00,SystemResetWarning,0838.3,5.00,000.00,029.3,027.1,000.0,038.0,030.9,32.2,0000.0,0007.62,0003.29,0002.91
2023-08-06 07:27:00,SystemResetWarning,0838.3,5.00,000.00,029.4,027.4,000.0,038.0,031.0,32.0,0000.0,0007.53,0003.25,0002.91
2023-08-06 07:28:00,SystemResetWarning,0838.3,5.01,000.00,029.4,027.6,000.0,038.0,031.0,32.1,0000.0,0006.99,0003.22,0002.91
2023-08-06 07:29:00,SystemResetWarning,0838.2,5.01,000.00,029.4,027.8,000.0,038.0,031.0,32.0,0000.0,0007.35,0003.23,0002.90
2023-08-06 07:30:00,SystemResetWarning,0838.2,4.98,000.00,029.4,027.9,000.0,038.0,031.1,31.9,0000.0,0008.31,0003.20,0002.89
2023-08-06 07:31:00,SystemResetWarning,0838.2,4.99,000.00,029.5,028.0,000.0,038.0,031.1,32.0,0000.0,0007.86,0003.20,0002.88
2023-08-06 07:32:00,SystemResetWarning,0838.2,5.01,000.00,029.5,028.1,000.0,038.0,031.1,32.1,0000.0,0007.84,0003.21,0002.88
2023-08-06 07:33:00,SystemResetWarning,0838.2,5.00,000.00,029.5,028.2,000.0,038.1,031.2,32.2,0000.0,0007.49,0003.21,0002.88
2023-08-06 07:34:00,SystemResetWarning,0838.2,5.01,000.00,029.5,028.3,000.0,038.1,031.2,32.2,0000.0,0007.92,0003.21,0002.88
2023-08-06 07:35:00,SystemResetWarning,0838.2,5.00,000.00,029.5,028.4,000.0,038.1,031.2,32.2,0000.0,0008.27,0003.21,0002.87
2023-08-06 07:36:00,SystemResetWarning,0838.2,5.00,000.00,029.6,028.4,000.0,038.1,031.2,32.0,0000.0,0008.05,0003.20,0002.87
2023-08-06 07:37:00,SystemResetWarning,0838.2,4.99,000.00,029.6,028.5,000.0,038.1,031.3,32.0,0000.0,0008.01,0003.22,0002.87
2023-08-06 07:38:00,SystemResetWarning,0838.2,4.99,000.00,029.6,028.5,000.0,038.1,031.3,32.0,0000.0,0008.32,0003.21,0002.85
2023-08-06 07:39:00,SystemResetWarning,0838.2,5.01,000.00,029.7,028.5,000.0,038.2,031.3,31.8,0000.0,0008.36,0003.23,0002.86
2023-08-06 07:40:00,SystemResetWarning,0838.2,5.01,000.00,029.7,028.6,000.0,038.2,031.3,31.9,0000.0,0007.98,0003.21,0002.88
2023-08-06 07:41:00,SystemResetWarning,0838.2,5.01,000.00,029.7,028.6,000.0,038.2,031.4,31.8,0000.0,0006.69,0003.21,0002.90
2023-08-06 07:42:00,SystemResetWarning,0838.2,5.00,000.00,029.7,028.6,000.0,038.2,031.4,31.7,0000.0,0006.76,0003.22,0002.91
2023-08-06 07:43:00,SystemResetWarning,0838.2,5.00,000.00,029.8,028.7,000.0,038.3,031.4,31.7,0000.0,0006.69,0003.22,0002.92
2023-08-06 07:44:00,SystemResetWarning,0838.2,5.00,000.00,029.8,028.7,000.0,038.3,031.4,31.7,0000.0,0006.50,0003.19,0002.91
2023-08-06 07:45:00,SystemResetWarning,0838.1,4.99,000.00,029.8,027.2,000.0,038.2,031.3,31.7,0000.0,0005.78,0003.20,0002.91
2023-08-06 07:46:00,SystemResetWarning,0838.1,5.01,000.00,029.7,025.7,000.0,038.0,031.0,31.9,0000.0,0005.26,0003.22,0002.93
2023-08-06 07:47:00,SystemResetWarning,0838.2,5.00,000.00,029.6,025.3,000.0,038.0,030.7,32.1,0000.0,0005.27,0003.22,0002.92
2023-08-06 07:48:00,SystemResetWarning,0838.2,5.00,000.00,029.5,025.6,000.0,038.0,030.6,32.2,0000.0,0005.33,0003.19,0002.92
2023-08-06 07:49:00,SystemResetWarning,0838.1,5.00,000.00,029.4,026.0,000.0,038.0,030.7,32.1,0000.0,0004.75,0003.22,0002.93
2023-08-06 07:50:00,SystemResetWarning,0838.2,4.99,000.00,029.4,026.4,000.0,038.1,030.8,32.1,0000.0,0004.75,0003.22,0002.93
2023-08-06 07:51:00,SystemResetWarning,0838.2,5.00,000.00,029.4,026.8,000.0,038.1,030.9,32.2,0000.0,0004.86,0003.24,0002.92
2023-08-06 07:52:00,SystemResetWarning,0838.2,5.00,000.00,029.4,027.1,000.0,038.1,030.9,32.0,0000.0,0005.09,0003.25,0002.92
2023-08-06 07:53:00,SystemResetWarning,0838.2,5.01,000.00,029.4,027.3,000.0,038.1,031.0,32.2,0000.0,0005.17,0003.24,0002.90
2023-08-06 07:54:00,SystemResetWarning,0838.2,5.00,000.00,029.4,027.5,000.0,038.1,031.0,32.4,0000.0,0005.83,0003.26,0002.91
2023-08-06 07:55:00,SystemResetWarning,0838.2,5.00,000.00,029.4,027.7,000.0,038.1,031.0,32.5,0000.0,0006.39,0003.26,0002.90
2023-08-06 07:56:00,SystemResetWarning,0838.1,5.00,000.00,029.4,027.9,000.0,038.1,031.1,32.2,0000.0,0006.32,0003.25,0002.89
2023-08-06 07:57:00,SystemResetWarning,0838.1,5.00,000.00,029.5,028.0,000.0,038.1,031.1,32.1,0000.0,0006.34,0003.22,0002.88
2023-08-06 07:58:00,SystemResetWarning,0838.1,5.00,000.00,029.5,028.1,000.0,038.1,031.1,32.2,0000.0,0006.60,0003.26,0002.89
2023-08-06 07:59:00,SystemResetWarning,0838.0,5.00,000.00,029.5,028.2,000.0,038.1,031.2,32.1,0000.0,0007.65,0003.28,0002.89
